TimeEDT,TemperatureF,Dew PointF,Humidity,Sea Level PressureIn,VisibilityMPH,Wind Direction,Wind SpeedMPH,Gust SpeedMPH,PrecipitationIn,Events,Conditions,WindDirDegrees,DateUTC
12:53 AM,68.0,63.0,84,29.80,10.0,Calm,Calm,-,N/A,,Clear,0,2013-07-23 04:53:00
1:53 AM,68.0,64.9,90,29.78,10.0,West,3.5,-,0.00,,Mostly Cloudy,270,2013-07-23 05:53:00
2:53 AM,66.9,64.9,93,29.75,10.0,South,3.5,-,0.00,Rain,Light Rain,190,2013-07-23 06:53:00
3:53 AM,66.9,64.9,93,29.73,8.0,Calm,Calm,-,0.00,Rain,Light Rain,0,2013-07-23 07:53:00
4:53 AM,66.0,64.9,96,29.72,7.0,Calm,Calm,-,0.00,,Overcast,0,2013-07-23 08:53:00
5:53 AM,66.9,66.0,97,29.72,8.0,Calm,Calm,-,0.01,Rain,Light Rain,0,2013-07-23 09:53:00
6:53 AM,66.9,64.9,93,29.71,5.0,Calm,Calm,-,0.01,Rain,Light Rain,0,2013-07-23 10:53:00
7:40 AM,68.0,66.2,94,29.71,6.0,Calm,Calm,-,0.02,Rain,Light Rain,0,2013-07-23 11:40:00
7:53 AM,68.0,66.9,96,29.71,5.0,Calm,Calm,-,0.03,Rain,Light Rain,0,2013-07-23 11:53:00
8:03 AM,68.0,66.2,94,29.70,5.0,Calm,Calm,-,0.01,Rain,Light Rain,0,2013-07-23 12:03:00
8:53 AM,69.1,66.9,93,29.69,4.0,Calm,Calm,-,0.06,Rain,Light Rain,0,2013-07-23 12:53:00
9:11 AM,69.8,66.2,88,29.68,5.0,SE,5.8,-,0.02,Rain,Light Rain,140,2013-07-23 13:11:00
9:32 AM,69.8,66.2,88,29.68,9.0,SSE,4.6,-,0.03,Rain,Light Rain,160,2013-07-23 13:32:00
9:53 AM,69.1,66.9,93,29.67,6.0,Calm,Calm,-,0.04,Rain,Light Rain,0,2013-07-23 13:53:00
10:16 AM,69.8,66.2,88,29.66,6.0,Calm,Calm,-,0.02,Rain,Light Rain,0,2013-07-23 14:16:00
10:29 AM,69.8,66.2,88,29.66,5.0,Calm,Calm,-,0.04,Rain,Light Rain,0,2013-07-23 14:29:00
10:41 AM,69.8,66.2,88,29.66,10.0,Calm,Calm,-,0.04,Rain,Light Rain,0,2013-07-23 14:41:00
10:53 AM,70.0,66.0,87,29.66,10.0,Calm,Calm,-,0.05,Rain,Light Rain,0,2013-07-23 14:53:00
11:26 AM,69.8,64.4,83,29.65,10.0,Calm,Calm,-,0.00,,Overcast,0,2013-07-23 15:26:00
11:42 AM,69.8,66.2,88,29.65,10.0,Calm,Calm,-,0.00,Rain,Light Rain,0,2013-07-23 15:42:00
11:53 AM,70.0,66.0,87,29.65,10.0,Calm,Calm,-,0.00,Rain,Light Rain,0,2013-07-23 15:53:00
12:53 PM,71.1,68.0,90,29.63,10.0,Calm,Calm,-,0.00,Rain,Light Rain,0,2013-07-23 16:53:00
1:15 PM,71.6,68.0,88,29.63,10.0,SW,3.5,-,0.00,,Overcast,220,2013-07-23 17:15:00
1:53 PM,75.0,68.0,79,29.61,10.0,South,3.5,-,0.00,,Scattered Clouds,190,2013-07-23 17:53:00
2:53 PM,75.9,68.0,76,29.59,10.0,SE,8.1,-,N/A,,Partly Cloudy,130,2013-07-23 18:53:00
3:53 PM,75.0,68.0,79,29.57,10.0,SE,9.2,-,N/A,,Clear,140,2013-07-23 19:53:00
4:53 PM,73.9,66.0,76,29.55,10.0,SE,10.4,-,N/A,,Clear,130,2013-07-23 20:53:00
5:53 PM,75.9,66.9,74,29.55,10.0,SSE,6.9,-,N/A,,Clear,150,2013-07-23 21:53:00
6:53 PM,75.0,66.0,73,29.54,10.0,South,3.5,-,N/A,,Clear,180,2013-07-23 22:53:00
7:53 PM,73.0,66.0,79,29.53,10.0,Calm,Calm,-,N/A,,Partly Cloudy,0,2013-07-23 23:53:00
8:53 PM,68.0,66.0,93,29.54,10.0,Calm,Calm,-,N/A,,Clear,0,2013-07-24 00:53:00
9:53 PM,66.9,64.9,93,29.55,10.0,Calm,Calm,-,N/A,,Partly Cloudy,0,2013-07-24 01:53:00
10:53 PM,66.9,64.9,93,29.55,10.0,Calm,Calm,-,N/A,,Clear,0,2013-07-24 02:53:00
11:53 PM,68.0,64.0,87,29.55,10.0,South,3.5,-,N/A,,Partly Cloudy,170,2013-07-24 03:53:00